www.pogodaiklimat.ru

Погода и климат >> Архив погоды >> Буркина-Фасо >> Dori


ПОГОДА в Dori

  • Прогноз погоды в Dori
  • Монитор погоды в Dori
  • Климат города

АРХИВ ПОГОДЫ в Dori

Время (UTC), дата Ветер
(напр.,м/с)
 
Видим.   Явления Облачность Т
(С)
Тd
(С)
f
(%)
Тe
(С)
Тes
(С)
Комфортность P
(гПа)
Po
(гПа)
Тmin
(С)
Tmax
(С)
R
(мм)
R24
(мм)
S
(см)
18 19.06 Ю 2 10 км 9/1 800 м
[Sc Ci sp]
+35.3 +22.3 47 +44 +44 опасность
перегрева
1005.8 975.4 +38.3
21 19.06 штиль 0 10 км зарница 9/1 800 м
[Cb cap Ci sp]
+33.0 +23.9 59 +45 +45 опасность
перегрева
1007.5 977.0
00 20.06 штиль 0 10 км 9/0
[Ci sp]
+28.2 +22.4 71 +37 +37 очень
душно
1008.4 977.8
03 20.06 Ю 1 10 км зарница 9/1 1200 м
[Cb cap Ci sp]
+28.0 +19.7 61 +34 +34 очень
душно
1008.1 977.7
06 20.06 штиль 0 10 км 9/0
[Ac trans Ci sp]
+26.8 +22.4 77 +35 +35 очень
душно
1008.2 977.7 +26.7
12 20.06 Ю 3 10 км 9/1 600 м
[Sc Ac trans Ci sp]
+31.8 +19.6 48 +38 +46 очень
душно
1009.6 978.9
18 20.06 Ю 1 10 км 9/0
[Ci sp]
+29.4 +22.6 67 +39 +39 очень
душно
1009.8 978.9 +33.4
21 20.06 штиль 0 10 км 9/0
[Ci sp]
+28.1 +23.1 74 +38 +38 очень
душно
1011.4 980.4
00 21.06 штиль 0 10 км 9/0
[Ci sp]
+27.4 +23.7 80 +37 +37 очень
душно
1011.6 980.8
06 21.06 Ю 2 10 км 9/3 600 м
[Sc Ci sp]
+25.6 +23.3 87 +34 +34 очень
душно
1012.9 981.8 +25.5
09 21.06 Ю 1 10 км 9/1 600 м
[Sc Ci sp]
+29.5 +21.5 62 +37 +48 очень
душно
1013.5 982.6
15 21.06 штиль 0 10 км 9/4 600 м
[Cu Sc Ci sp]
+34.2 +20.8 46 +41 +49 опасность
перегрева
1010.7 979.9
18 21.06 штиль 0 10 км 9/1 600 м
[Sc Ci sp]
+33.2 +20.2 46 +39 +40 очень
душно
1009.9 979.2 +35.5
21 21.06 штиль 0 10 км 9/0
[Ci sp]
+31.0 +21.5 57 +39 +39 очень
душно
1010.7 979.2
03 22.06 штиль 0 10 км 9/0
[Ci sp]
+27.8 +22.6 73 +37 +37 очень
душно
1011.6 980.9
06 22.06 штиль 0 10 км 9/0
[Ac trans Ci sp]
+27.3 +22.5 75 +36 +36 очень
душно
1012.2 981.4 +27.2
09 22.06 Ю 1 10 км 9/0
[Ac trans Ci sp]
+27.3 +22.5 75 +36 +47 очень
душно
1012.2 981.4
12 22.06 Ю 2 10 км 9/1 600 м
[Cu Sc Ci sp]
+35.0 +21.3 45 +43 +58 опасность
перегрева
1010.8 980.3
15 22.06 Ю 1 10 км 9/1 600 м
[Cu Sc Ci sp]
+37.1 +20.2 37 +43 +53 опасность
перегрева
1007.5 977.1
18 22.06 штиль 0 10 км 9/1 600 м
[Sc Ci sp]
+36.3 +20.0 39 +42 +42 опасность
перегрева
1007.4 977.0 +38.1
00 23.06 Ю 2 10 км 9/0
[Ci sp]
+32.6 +21.3 51 +40 +40 очень
душно
1008.1 977.9
03 23.06 Ю 2 10 км 9/0
[Ci sp]
+31.2 +20.8 54 +38 +38 очень
душно
1006.9 976.6
06 23.06 Ю 2 10 км 9/0
[Ci sp]
+30.3 +21.2 58 +38 +38 очень
душно
1007.6 977.3 +30.3
09 23.06 ЮЗ 3 10 км 9/0
[Ci sp]
+33.8 +21.7 49 +42 +50 опасность
перегрева
1007.8 977.6
12 23.06 Ю 2 10 км 9/0
[Ci sp]
+39.5 +18.3 29 +43 +61 опасность
перегрева
1007.0 977.0
15 23.06 штиль 0 10 км 9/0
[Ci sp]
+42.7 +15.1 20 +44 +57 опасность
перегрева
1003.5 973.7
18 23.06 штиль 0 10 км 9/0
[Ci sp]
+40.5 +15.5 23 +42 +42 опасность
перегрева
1002.9 972.9 +43.5
21 23.06 Ю 2 10 км зарница 9/1 1200 м
[Cb cap Ci sp]
+33.8 +16.4 35 +36 +36 очень
душно
1003.7 973.7
00 24.06 штиль 0 10 км 9/0
[Ci sp]
+34.2 +17.4 37 +38 +38 очень
душно
1004.9 975.0
03 24.06 Ю 3 10 км 9/0
[Ci sp]
+32.2 +24.2 63 +44 +44 опасность
перегрева
1004.5 974.6
12 24.06 Ю 2 10 км {гроза, дождь} 9/0
[Ac trans Ci sp]
+31.6 +22.2 58 +41 +53 опасность
перегрева
1009.1 978.7 8
15 24.06 Ю 2 10 км 9/0
[Ac As Ci sp]
+32.5 +21.6 53 +41 +45 опасность
перегрева
1006.0 975.7
00 25.06 штиль 0 10 км 9/0
[Ci sp]
+28.2 +24.7 81 +40 +40 очень
душно
1010.9 980.1
03 25.06 штиль 0 10 км 9/0
[Ci sp]
+27.0 +23.9 83 +37 +37 очень
душно
1010.2 979.4
06 25.06 штиль 0 10 км 9/0
[Ac trans Ci sp]
+26.2 +24.2 89 +36 +37 очень
душно
1011.8 980.6 +26.2 8
09 25.06 С 1 10 км 9/5 600 м
[Sc Ac trans Ci sp]
+23.9 +23.3 96 +32 +36 очень
душно
1014.6 983.4
12 25.06 штиль 0 10 км {дождь} 9/3 600 м
[Sc Cs]
+28.8 +24.4 77 +40 +57 опасность
солнечного
удара
1012.8 981.9 4
15 25.06 штиль 0 10 км 9/3 600 м
[Cu Sc Ac As Ci sp]
+33.2 +22.6 54 +43 +49 опасность
перегрева
1009.2 978.5
18 25.06 штиль 0 10 км 9/1 600 м
[Cu Sc Ac trans Ci sp]
+32.5 +21.0 51 +40 +40 очень
душно
1009.3 978.5 +34.5 4
21 25.06 штиль 0 10 км зарница 9/1 1200 м
[Cb cap Ci sp]
+29.0 +24.2 75 +40 +40 очень
душно
1011.2 980.1
00 26.06 штиль 0 10 км 9/0
[Ci sp]
+28.2 +22.1 70 +37 +37 очень
душно
1011.8 980.9
03 26.06 штиль 0 10 км 9/0
[Ci sp]
+27.2 +23.3 79 +37 +37 очень
душно
1011.0 980.2
06 26.06 штиль 0 10 км 9/0
[Ac trans Ci sp]
+26.5 +23.6 84 +36 +36 очень
душно
1011.5 980.6 +26.2 4
09 26.06 штиль 0 10 км 9/0
[Cs]
+29.7 +23.3 69 +40 +53 опасность
солнечного
удара
1012.4 981.6
12 26.06 Ю 1 10 км 9/3 600 м
[Cu Sc Ci sp]
+33.1 +22.5 54 +43 +57 опасность
перегрева
1011.3 980.6
15 26.06 штиль 0 10 км 9/1 600 м
[Cu Sc Ci sp]
+35.4 +22.8 48 +45 +57 опасность
перегрева
1009.2 978.6

 

Местоположение метеостанции Dori (Буркина-Фасо): широта 14.03 долгота -0.03 высота над уровнем моря 277 м.

В архиве по умолчанию представлена погода в Dori за последнюю неделю. Архивные данные за месяц целиком и за предыдущие месяцы, начиная с января 2011 года, Вы можете получить, выбрав интересующий диапазон дат из раскрывающегося списка и нажав кнопку "Ввод!".

Внимание! Время в таблицах - всемирное. Для получения местного времени необходимо прибавить поправку, которая в Dori равна 0 ч.

Смотрите также архив погоды в соседних городах и на ближайших метеорологических станциях:

Погода в Tillabery (Нигер) (161 км)
Погода в Fada N`Gourma (Буркина-Фасо) (227 км)
Погода в Niamey-Aero (Нигер) (245 км)
Погода в Ouagadougou (Буркина-Фасо) (247 км)
Погода в Ouahigouya (Буркина-Фасо) (263 км)
Погода в Po (Буркина-Фасо) (343 км)
Погода в Dapaon (Того) (354 км)
Погода в Navrongo (Гана) (367 км)
Погода в Dosso (Нигер) (367 км)
Погода в Boromo (Буркина-Фасо) (404 км)

Пояснения к столбцам:

Ветер - указаны скорость ветра в м/с - средняя за 10 мин, порывы в срок и между сроками (в фигурных скобках) и направление, откуда дует ветер: С - северный, СВ - северо-восточный, В - восточный, ЮВ - юго-восточный, Ю - южный, ЮЗ - юго-западный, З - западный, СЗ - северо-западный.
Видимость - горизонтальная дальность видимости в метрах или километрах. При видимости от 1 до 10 км при отсутствии осадков обычно наблюдается дымка, при ухудшении видимости до 1 км и менее - туман. В сухую погоду видимость может ухудшаться дымом, пылью или мглою.
Явления - указаны атмосферные явления, наблюдавшиеся в срок или в последний час перед сроком; фигурными скобками обозначены явления, наблюдавшиеся между сроками (за 1-3 часа до срока); квадратными скобками обозначены град или гололедные отложения с указанием их диаметра в мм.
Облачность - указаны через наклонную черту общая и нижняя облачность в баллах и высота нижней границы облаков в метрах; квадратными скобками обозначены формы облаков: Ci - перистые, Cs - перисто-слоистые, Cc - перисто-кучевые, Ac - высококучевые, As - высокослоистые, Sc - слоисто-кучевые, Ns - слоисто-дождевые, Cu - кучевые, Cb - кучево-дождевые. Подробнее классификацию облаков см. в Атласе облаков (PDF).
T - Температура воздуха - температура, измеренная на высоте 2 м над землей.
Td - Температура точки росы - температура, при понижении до которой содержащийся в воздухе водяной пар достигнет насыщения.
f - Относительная влажность воздуха - влажноcть воздуха, измеренная на высоте 2 м над землей.
Te - Эффективная температура - температура, которую ощущает одетый по сезону человек в тени. Характеристика душности погоды. При расчете учитывается влияние влажности воздуха и скорости ветра на теплоощущения человека.
Tes - Эффективная температура на солнце - температура, которую ощущает человек, с поправкой на солнечный нагрев. Характеристика знойности погоды. Зависит от высоты солнца над горизонтом, облачности и скорости ветра. Ночью, в пасмурную погоду, а также при ветре 12 м/с и более поправка равна нулю.
P - Атмосферное давление - приведенное к уровню моря атмосферное давление.
Po - Атмосферное давление - измеренное на уровне метеостанции атмосферное давление.
Tmin - Минимальная температура - минимум температуры воздуха на высоте 2 м над землей.
Tmax - Максимальная температура - максимум температуры воздуха на высоте 2 м над землей.
R - Количество осадков - Количество выпавших осадков за период времени, мм. При наведении курсора мыши на число - период времени, за который выпало указанное количество осадков.
R24 - Количество осадков - Количество выпавших осадков за 24 часа, мм.
S - Снежный покров - Высота снежного покрова, см. При наведении курсора мыши на число - состояние снежного покрова и степень покрытия местности в баллах.